This demonstration page uses our WeatherBlox Daily Observations layout. Learn more.

Left ArrowRight Arrow

Hourly Observations for January 6, 2017

Temp ( °F °C ) Dew Point ( °F °C ) Humidity (%) Winds ( mph kmh ) Pressure ( in mb ) Visibility ( mi km ) Precip ( " mm )
12:16 am 00:16 Cloudy with Light Snow 32 0 32 0 100 100 N 6 9 29.97 1015 7 11.26538 0 0
12:35 am 00:35 Cloudy with Light Snow 32 0 32 0 100 100 N 7 11 29.97 1015 4 6.43736 0 0
12:56 am 00:56 Cloudy with Light Snow 30 -1 30 -1 100 100 N 8 13 29.97 1015 2 3.21868 0 0
1:16 am 01:16 Cloudy with Light Snow 30 -1 30 -1 100 100 N 6 9 29.97 1015 2 3.21868 0 0
1:36 am 01:36 Cloudy with Light Snow 30 -1 30 -1 100 100 N 8 13 29.97 1015 7 11.26538 0 0
1:55 am 01:55 Cloudy 30 -1 30 -1 100 100 N 6 9 29.97 1015 10 16.0934 0 0
2:15 am 02:15 Cloudy 30 -1 30 -1 100 100 N 9 15 29.97 1015 10 16.0934 0 0
2:35 am 02:35 Cloudy 30 -1 30 -1 100 100 NNE 7 11 29.97 1015 10 16.0934 0 0
2:56 am 02:56 Cloudy 30 -1 28 -2 93 93 N 9 15 30 1016 10 16.0934 0 0
3:16 am 03:16 Cloudy 30 -1 28 -2 93 93 N 6 9 29.97 1015 10 16.0934 0 0
3:36 am 03:36 Cloudy 30 -1 28 -2 93 93 N 8 13 29.97 1015 10 16.0934 0 0
3:56 am 03:56 Cloudy 30 -1 27 -3 86 86 N 8 13 29.97 1015 10 16.0934 0 0
4:15 am 04:15 Cloudy 30 -1 27 -3 86 86 N 12 19 29.97 1015 10 16.0934 0 0
4:36 am 04:36 Cloudy 30 -1 25 -4 80 80 NNW 9 15 30 1016 10 16.0934 0 0
4:55 am 04:55 Cloudy 30 -1 25 -4 80 80 N 7 11 30 1016 10 16.0934 0 0
5:15 am 05:15 Cloudy 30 -1 25 -4 80 80 N 9 15 30 1016 10 16.0934 0 0
5:36 am 05:36 Cloudy 30 -1 25 -4 80 80 NNW 8 13 30 1016 10 16.0934 0 0
5:55 am 05:55 Cloudy 30 -1 25 -4 80 80 NNW 12 19 30.03 1017 10 16.0934 0 0
6:15 am 06:15 Cloudy 30 -1 25 -4 80 80 N 6 9 30 1016 10 16.0934 0 0
6:35 am 06:35 Cloudy 30 -1 25 -4 80 80 N 7 11 30.06 1018 10 16.0934 0 0
6:55 am 06:55 Cloudy 30 -1 25 -4 80 80 NNW 12 19 30.06 1018 10 16.0934 0 0
7:16 am 07:16 Cloudy 28 -2 23 -5 80 80 NNW 12 19 30.09 1019 10 16.0934 0 0
7:35 am 07:35 Partly Cloudy 28 -2 21 -6 74 74 NNW 12 19 30.09 1019 10 16.0934 0 0
7:55 am 07:55 Sunny 28 -2 21 -6 74 74 undefined N/A 30.09 1019 10 16.0934 0 0
8:15 am 08:15 Sunny 28 -2 21 -6 74 74 NNW 10 17 30.09 1019 10 16.0934 0 0
8:35 am 08:35 Sunny 28 -2 21 -6 74 74 NNW 7 11 30.12 1020 10 16.0934 0 0
8:56 am 08:56 Sunny 28 -2 21 -6 74 74 NNW 14 22 30.12 1020 10 16.0934 0 0
9:15 am 09:15 Sunny 28 -2 21 -6 74 74 N 9 15 30.12 1020 10 16.0934 0 0
9:55 am 09:55 Partly Cloudy 28 -2 19 -7 69 69 NNW 15 24 30.15 1021 10 16.0934 0 0
10:16 am 10:16 Sunny 28 -2 19 -7 69 69 N 10 17 30.18 1022 10 16.0934 0 0
10:35 am 10:35 Sunny 28 -2 18 -8 64 64 N 10 17 30.18 1022 10 16.0934 0 0
10:57 am 10:57 Sunny 28 -2 18 -8 64 64 N 10 17 30.21 1023 10 16.0934 0 0
11:18 am 11:18 Sunny 28 -2 18 -8 64 64 NNW 8 13 30.18 1022 10 16.0934 0 0
11:37 am 11:37 Sunny 30 -1 18 -8 59 59 NNW 8 13 30.18 1022 10 16.0934 0 0
11:55 am 11:55 Mostly Cloudy 30 -1 18 -8 59 59 N 12 19 30.18 1022 10 16.0934 0 0
12:17 pm 12:17 Cloudy 28 -2 18 -8 64 64 N 10 17 30.18 1022 10 16.0934 0 0
12:35 pm 12:35 Cloudy 28 -2 18 -8 64 64 NNW 10 17 30.18 1022 10 16.0934 0 0
12:56 pm 12:56 Cloudy 28 -2 18 -8 64 64 NNW 7 11 30.15 1021 10 16.0934 0 0
1:15 pm 13:15 Cloudy 28 -2 18 -8 64 64 NW 10 17 30.15 1021 10 16.0934 0 0
1:37 pm 13:37 Cloudy 30 -1 18 -8 59 59 N 9 15 30.15 1021 10 16.0934 0 0
1:56 pm 13:56 Cloudy 28 -2 18 -8 64 64 N 5 7 30.18 1022 10 16.0934 0 0
2:16 pm 14:16 Cloudy 28 -2 18 -8 64 64 N 9 15 30.18 1022 10 16.0934 0 0
2:35 pm 14:35 Cloudy 28 -2 18 -8 64 64 N 6 9 30.18 1022 10 16.0934 0 0
2:55 pm 14:55 Cloudy 28 -2 18 -8 64 64 N 8 13 30.18 1022 10 16.0934 0 0
3:15 pm 15:15 Cloudy 28 -2 16 -9 59 59 N 5 7 30.21 1023 10 16.0934 0 0
3:35 pm 15:35 Cloudy 28 -2 16 -9 59 59 N 5 7 30.21 1023 10 16.0934 0 0
3:56 pm 15:56 Cloudy 28 -2 16 -9 59 59 N 7 11 30.21 1023 10 16.0934 0 0
4:15 pm 16:15 Mostly Cloudy 28 -2 16 -9 59 59 N 7 11 30.21 1023 10 16.0934 0 0
4:35 pm 16:35 Mostly Cloudy 28 -2 16 -9 59 59 NNE 6 9 30.24 1024 10 16.0934 0 0
4:55 pm 16:55 Mostly Cloudy 28 -2 16 -9 59 59 N 8 13 30.24 1024 10 16.0934 0 0
5:15 pm 17:15 Partly Cloudy 28 -2 16 -9 59 59 N 7 11 30.24 1024 10 16.0934 0 0
5:35 pm 17:35 Clear 28 -2 16 -9 59 59 N 7 11 30.27 1025 10 16.0934 0 0
5:55 pm 17:55 Partly Cloudy 28 -2 14 -10 55 55 N 6 9 30.27 1025 10 16.0934 0 0
6:15 pm 18:15 Mostly Cloudy 28 -2 14 -10 55 55 N 7 11 30.27 1025 10 16.0934 0 0
6:35 pm 18:35 Partly Cloudy 28 -2 16 -9 59 59 N 5 7 30.27 1025 10 16.0934 0 0
6:55 pm 18:55 Clear 28 -2 16 -9 59 59 NNE 3 6 30.3 1026 10 16.0934 0 0
7:15 pm 19:15 Partly Cloudy 28 -2 16 -9 59 59 NNE 5 7 30.27 1025 10 16.0934 0 0
7:35 pm 19:35 Partly Cloudy 27 -3 16 -9 64 64 NNE 7 11 30.3 1026 10 16.0934 0 0
7:55 pm 19:55 Clear 27 -3 16 -9 64 64 NNE 6 9 30.3 1026 10 16.0934 0 0
8:15 pm 20:15 Clear 27 -3 16 -9 64 64 NNE 8 13 30.3 1026 10 16.0934 0 0
8:35 pm 20:35 Clear 27 -3 12 -11 54 54 NNE 6 9 30.3 1026 10 16.0934 0 0
8:55 pm 20:55 Clear 27 -3 10 -12 50 50 NNE 5 7 30.3 1026 10 16.0934 0 0
9:15 pm 21:15 Clear 25 -4 10 -12 54 54 NNE 6 9 30.3 1026 10 16.0934 0 0
9:35 pm 21:35 Clear 25 -4 10 -12 54 54 Calm 30.3 1026 10 16.0934 0 0
9:55 pm 21:55 Clear 25 -4 9 -13 50 50 NNW 6 9 30.3 1026 10 16.0934 0 0
10:15 pm 22:15 Clear 25 -4 10 -12 54 54 NNW 3 6 30.33 1027 10 16.0934 0 0
10:55 pm 22:55 Clear 25 -4 10 -12 54 54 NNW 9 15 30.33 1027 10 16.0934 0 0
11:15 pm 23:15 Clear 25 -4 10 -12 54 54 N 7 11 30.36 1028 10 16.0934 0 0
11:35 pm 23:35 Partly Cloudy 25 -4 10 -12 54 54 N 9 15 30.33 1027 10 16.0934 0 0
11:56 pm 23:56 Partly Cloudy 25 -4 10 -12 54 54 NNE 9 15 30.33 1027 10 16.0934 0 0

Powered by AerisWeather